Location: Newark
(44.3248°N, 23.7839°E)
Time: 06:13:26
(UTC+00:00)

FO-29 - Pass Details

Date: 24 April 2024
Orbit: 801 x 1320 km, 98.6° (Epoch: 28 May)

Event Time Altitude Azimuth Distance (km) Brightness Sun altitude
Rises 00:23:54 0° 13° (NNE) 4,182 13.9 -26.5°
Reaches altitude 10° 00:26:30 10° 14° (NNE) 3,259 13.1 -26.2°
Maximum altitude 00:34:12 89° 102° (ESE) 1,320 10.0 -25.4°
Enters shadow 00:37:12 43° 194° (SSW) 1,767 10.4 -25.1°
